Wetterdaten: Freitag, 15.04.2016
Datum Zeit Auen-Temp. Temp gefhlt Luftfeuchte Luftdruck Regen Wind Richtung Richtung Sonnenschein Taupunkt Windben
15.04.2016 00:00 3,3 C 2,9 C 88 % 1012,3 hPa 0,0 mm 0,6 km/h (0 Bft) W 270 0 min 1,5 C 3,6 km/h (1 Bft)
15.04.2016 00:05 3,2 C 2,9 C 88 % 1012,3 hPa 0,0 mm 0,9 km/h (0 Bft) NW 315 0 min 1,4 C 0,0 km/h (0 Bft)
15.04.2016 00:10 3,1 C 2,9 C 88 % 1011,9 hPa 0,0 mm 1,2 km/h (1 Bft) O-NO 67 0 min 1,3 C 0,0 km/h (0 Bft)
15.04.2016 00:15 3,5 C 2,9 C 85 % 1011,9 hPa 0,0 mm 0,6 km/h (0 Bft) N-NW 337 0 min 1,2 C 8,6 km/h (2 Bft)
15.04.2016 00:20 3,5 C 2,9 C 85 % 1011,9 hPa 0,0 mm 0,6 km/h (0 Bft) O-SO 112 0 min 1,2 C 0,0 km/h (0 Bft)
15.04.2016 00:25 3,5 C 2,9 C 85 % 1011,9 hPa 0,0 mm 0,3 km/h (0 Bft) W-NW 292 0 min 1,2 C 0,0 km/h (0 Bft)
15.04.2016 00:30 3,5 C 2,8 C 85 % 1011,6 hPa 0,0 mm 0,0 km/h (0 Bft) S 180 0 min 1,2 C 0,0 km/h (0 Bft)
15.04.2016 00:35 3,5 C 2,9 C 85 % 1011,6 hPa 0,0 mm 2,4 km/h (1 Bft) O-NO 67 0 min 1,2 C 3,3 km/h (1 Bft)
15.04.2016 00:40 3,5 C 3,0 C 85 % 1011,6 hPa 0,0 mm 2,4 km/h (1 Bft) W-SW 247 0 min 1,2 C 0,0 km/h (0 Bft)
15.04.2016 00:43 3,6 C 3,2 C 89 % 1011,6 hPa 0,0 mm 0,3 km/h (0 Bft) S 180 0 min 2,0 C 0,0 km/h (0 Bft)
15.04.2016 00:44 3,6 C 3,2 C 89 % 1011,6 hPa 0,0 mm 0,3 km/h (0 Bft) S 180 0 min 2,0 C 0,0 km/h (0 Bft)
15.04.2016 00:45 3,6 C 3,2 C 89 % 1011,6 hPa 0,0 mm 0,3 km/h (0 Bft) S 180 0 min 2,0 C 0,0 km/h (0 Bft)
15.04.2016 00:50 3,7 C 3,2 C 89 % 1011,8 hPa 0,0 mm 0,0 km/h (0 Bft) O-NO 67 0 min 2,1 C 0,0 km/h (0 Bft)
15.04.2016 00:55 3,6 C 3,1 C 89 % 1011,8 hPa 0,0 mm 0,0 km/h (0 Bft) NO 45 0 min 2,0 C 0,0 km/h (0 Bft)
15.04.2016 01:00 3,5 C 3,0 C 89 % 1011,8 hPa 0,0 mm 0,0 km/h (0 Bft) O-NO 67 0 min 1,9 C 0,0 km/h (0 Bft)
15.04.2016 01:05 3,5 C 2,6 C 85 % 1011,8 hPa 0,0 mm 0,0 km/h (0 Bft) N-NO 22 0 min 1,2 C 0,0 km/h (0 Bft)
15.04.2016 01:10 3,5 C 2,6 C 85 % 1011,4 hPa 0,0 mm 0,0 km/h (0 Bft) O-SO 112 0 min 1,2 C 0,0 km/h (0 Bft)
15.04.2016 01:15 3,5 C 2,7 C 85 % 1011,4 hPa 0,0 mm 0,3 km/h (0 Bft) NO 45 0 min 1,2 C 0,0 km/h (0 Bft)
15.04.2016 01:20 3,5 C 2,4 C 85 % 1011,4 hPa 0,0 mm 0,3 km/h (0 Bft) N-NO 22 0 min 1,2 C 0,0 km/h (0 Bft)
15.04.2016 01:25 3,5 C 2,4 C 85 % 1011,4 hPa 0,0 mm 0,3 km/h (0 Bft) O-SO 112 0 min 1,2 C 0,0 km/h (0 Bft)
15.04.2016 01:30 3,5 C 2,3 C 85 % 1011,2 hPa 0,0 mm 0,3 km/h (0 Bft) O 90 0 min 1,2 C 0,0 km/h (0 Bft)
15.04.2016 01:35 3,5 C 2,2 C 85 % 1011,2 hPa 0,0 mm 0,3 km/h (0 Bft) O-SO 112 0 min 1,2 C 0,0 km/h (0 Bft)
15.04.2016 01:40 3,5 C 2,5 C 85 % 1011,2 hPa 0,0 mm 0,3 km/h (0 Bft) NW 315 0 min 1,2 C 0,0 km/h (0 Bft)
15.04.2016 01:45 3,5 C 2,5 C 85 % 1011,2 hPa 0,0 mm 0,3 km/h (0 Bft) NO 45 0 min 1,2 C 0,0 km/h (0 Bft)
15.04.2016 01:50 3,5 C 2,5 C 85 % 1011,1 hPa 0,0 mm 0,3 km/h (0 Bft) W-SW 247 0 min 1,2 C 0,0 km/h (0 Bft)
15.04.2016 01:55 3,5 C 2,2 C 85 % 1011,1 hPa 0,0 mm 0,3 km/h (0 Bft) S-SO 157 0 min 1,2 C 0,0 km/h (0 Bft)
15.04.2016 02:00 3,5 C 2,2 C 85 % 1011,1 hPa 0,0 mm 0,0 km/h (0 Bft) O-SO 112 0 min 1,2 C 0,0 km/h (0 Bft)
15.04.2016 02:05 3,5 C 2,1 C 85 % 1011,1 hPa 0,0 mm 0,0 km/h (0 Bft) N-NO 22 0 min 1,2 C 0,0 km/h (0 Bft)
15.04.2016 02:10 3,5 C 2,0 C 85 % 1011,2 hPa 0,0 mm 0,0 km/h (0 Bft) W 270 0 min 1,2 C 0,0 km/h (0 Bft)
15.04.2016 02:15 3,5 C 2,1 C 85 % 1011,2 hPa 0,0 mm 0,3 km/h (0 Bft) O 90 0 min 1,2 C 0,0 km/h (0 Bft)
15.04.2016 02:20 3,5 C 2,0 C 85 % 1011,2 hPa 0,0 mm 0,3 km/h (0 Bft) O-NO 67 0 min 1,2 C 0,0 km/h (0 Bft)
15.04.2016 02:25 3,5 C 2,1 C 85 % 1011,2 hPa 0,0 mm 0,3 km/h (0 Bft) SW 225 0 min 1,2 C 0,0 km/h (0 Bft)
15.04.2016 02:30 3,5 C 2,3 C 85 % 1011,2 hPa 0,0 mm 0,9 km/h (0 Bft) O-NO 67 0 min 1,2 C 3,3 km/h (1 Bft)
15.04.2016 02:35 3,5 C 2,3 C 85 % 1011,2 hPa 0,0 mm 0,6 km/h (0 Bft) O-NO 67 0 min 1,2 C 3,6 km/h (1 Bft)
15.04.2016 02:40 3,5 C 2,3 C 85 % 1011,2 hPa 0,0 mm 0,3 km/h (0 Bft) N-NO 22 0 min 1,2 C 0,0 km/h (0 Bft)
15.04.2016 02:45 3,5 C 2,3 C 85 % 1011,2 hPa 0,0 mm 1,2 km/h (1 Bft) O-NO 67 0 min 1,2 C 0,0 km/h (0 Bft)
15.04.2016 02:50 3,5 C 2,3 C 85 % 1010,9 hPa 0,0 mm 0,9 km/h (0 Bft) O-NO 67 0 min 1,2 C 0,0 km/h (0 Bft)
15.04.2016 02:55 3,5 C 2,3 C 85 % 1010,9 hPa 0,0 mm 0,6 km/h (0 Bft) W 270 0 min 1,2 C 0,0 km/h (0 Bft)
15.04.2016 03:00 3,5 C 2,3 C 85 % 1010,9 hPa 0,0 mm 0,6 km/h (0 Bft) S-SW 202 0 min 1,2 C 0,0 km/h (0 Bft)
15.04.2016 03:05 3,5 C 2,5 C 85 % 1010,9 hPa 0,0 mm 0,0 km/h (0 Bft) SW 225 0 min 1,2 C 0,0 km/h (0 Bft)
15.04.2016 03:10 3,5 C 2,5 C 85 % 1010,8 hPa 0,0 mm 0,0 km/h (0 Bft) NO 45 0 min 1,2 C 0,0 km/h (0 Bft)
15.04.2016 03:15 3,5 C 2,7 C 85 % 1010,8 hPa 0,0 mm 0,0 km/h (0 Bft) S 180 0 min 1,2 C 0,0 km/h (0 Bft)
15.04.2016 03:20 3,5 C 2,8 C 85 % 1010,8 hPa 0,0 mm 0,0 km/h (0 Bft) S 180 0 min 1,2 C 3,0 km/h (1 Bft)
15.04.2016 03:25 3,5 C 2,8 C 85 % 1010,8 hPa 0,0 mm 0,0 km/h (0 Bft) S 180 0 min 1,2 C 0,0 km/h (0 Bft)
15.04.2016 03:30 3,5 C 2,9 C 85 % 1010,8 hPa 0,0 mm 0,0 km/h (0 Bft) N 360 0 min 1,2 C 0,0 km/h (0 Bft)
15.04.2016 03:35 3,5 C 3,1 C 89 % 1010,8 hPa 0,0 mm 1,5 km/h (1 Bft) N-NW 337 0 min 1,9 C 0,0 km/h (0 Bft)
15.04.2016 03:40 3,6 C 3,2 C 88 % 1010,8 hPa 0,0 mm 1,5 km/h (1 Bft) NO 45 0 min 1,8 C 0,0 km/h (0 Bft)
15.04.2016 03:43 3,4 C 3,1 C 88 % 1010,8 hPa 0,0 mm 0,3 km/h (0 Bft) SO 135 0 min 1,6 C 0,0 km/h (0 Bft)
15.04.2016 03:45 3,4 C 3,1 C 88 % 1010,8 hPa 0,0 mm 0,3 km/h (0 Bft) SO 135 0 min 1,6 C 0,0 km/h (0 Bft)
15.04.2016 03:50 3,5 C 3,2 C 88 % 1010,3 hPa 0,0 mm 0,0 km/h (0 Bft) N 360 0 min 1,7 C 0,0 km/h (0 Bft)
15.04.2016 03:55 3,7 C 3,3 C 88 % 1010,3 hPa 0,0 mm 0,3 km/h (0 Bft) NO 45 0 min 1,9 C 0,0 km/h (0 Bft)
15.04.2016 04:00 3,9 C 3,5 C 88 % 1010,3 hPa 0,0 mm 0,3 km/h (0 Bft) W-SW 247 0 min 2,1 C 0,0 km/h (0 Bft)
15.04.2016 04:05 4,3 C 3,9 C 88 % 1010,3 hPa 0,0 mm 0,3 km/h (0 Bft) NO 45 0 min 2,5 C 0,0 km/h (0 Bft)
15.04.2016 04:10 4,4 C 4,0 C 87 % 1010,1 hPa 0,0 mm 0,0 km/h (0 Bft) NO 45 0 min 2,4 C 0,0 km/h (0 Bft)
15.04.2016 04:15 4,6 C 4,2 C 87 % 1010,1 hPa 0,0 mm 0,3 km/h (0 Bft) N-NO 22 0 min 2,6 C 3,9 km/h (1 Bft)
15.04.2016 04:20 4,5 C 4,2 C 87 % 1010,1 hPa 0,0 mm 0,6 km/h (0 Bft) N-NO 22 0 min 2,5 C 0,0 km/h (0 Bft)
15.04.2016 04:25 5,0 C 4,6 C 85 % 1010,1 hPa 0,0 mm 1,2 km/h (1 Bft) NO 45 0 min 2,7 C 4,8 km/h (1 Bft)
15.04.2016 04:30 5,1 C 4,7 C 84 % 1010,2 hPa 0,0 mm 0,9 km/h (0 Bft) N-NO 22 0 min 2,6 C 3,3 km/h (1 Bft)
15.04.2016 04:35 5,2 C 4,8 C 81 % 1010,2 hPa 0,0 mm 1,2 km/h (1 Bft) O-NO 67 0 min 2,2 C 3,9 km/h (1 Bft)
15.04.2016 04:40 5,3 C 4,9 C 80 % 1010,2 hPa 0,0 mm 1,2 km/h (1 Bft) SO 135 0 min 2,1 C 0,0 km/h (0 Bft)
15.04.2016 04:45 5,3 C 4,9 C 79 % 1010,2 hPa 0,0 mm 0,6 km/h (0 Bft) SW 225 0 min 2,0 C 0,0 km/h (0 Bft)
15.04.2016 04:50 5,3 C 4,9 C 79 % 1010,0 hPa 0,0 mm 0,6 km/h (0 Bft) O-NO 67 0 min 2,0 C 0,0 km/h (0 Bft)
15.04.2016 04:55 5,0 C 4,7 C 79 % 1010,0 hPa 0,0 mm 0,0 km/h (0 Bft) N-NO 22 0 min 1,7 C 0,0 km/h (0 Bft)
15.04.2016 05:00 4,9 C 4,7 C 79 % 1010,0 hPa 0,0 mm 0,0 km/h (0 Bft) W 270 0 min 1,6 C 0,0 km/h (0 Bft)
15.04.2016 05:05 4,9 C 4,7 C 80 % 1010,0 hPa 0,0 mm 0,3 km/h (0 Bft) N-NW 337 0 min 1,7 C 8,9 km/h (2 Bft)
15.04.2016 05:10 4,9 C 4,7 C 80 % 1009,6 hPa 0,0 mm 0,3 km/h (0 Bft) S-SO 157 0 min 1,7 C 0,0 km/h (0 Bft)
15.04.2016 05:15 5,0 C 4,8 C 80 % 1009,6 hPa 0,0 mm 0,0 km/h (0 Bft) O-NO 67 0 min 1,8 C 0,0 km/h (0 Bft)
15.04.2016 05:20 5,3 C 5,0 C 79 % 1009,6 hPa 0,0 mm 0,0 km/h (0 Bft) O-NO 67 0 min 2,0 C 0,0 km/h (0 Bft)
15.04.2016 05:25 5,4 C 5,1 C 79 % 1009,6 hPa 0,0 mm 0,3 km/h (0 Bft) S-SW 202 0 min 2,1 C 7,2 km/h (2 Bft)
15.04.2016 05:30 5,2 C 5,0 C 79 % 1009,4 hPa 0,0 mm 0,3 km/h (0 Bft) O 90 0 min 1,9 C 3,0 km/h (1 Bft)
15.04.2016 05:35 5,3 C 5,1 C 79 % 1009,4 hPa 0,0 mm 0,3 km/h (0 Bft) NO 45 0 min 2,0 C 0,0 km/h (0 Bft)
15.04.2016 05:40 5,4 C 5,2 C 79 % 1009,4 hPa 0,0 mm 0,3 km/h (0 Bft) O-SO 112 0 min 2,1 C 0,0 km/h (0 Bft)
15.04.2016 05:45 5,3 C 5,2 C 78 % 1009,4 hPa 0,0 mm 0,3 km/h (0 Bft) O-NO 67 0 min 1,8 C 3,0 km/h (1 Bft)
15.04.2016 05:50 5,1 C 5,0 C 78 % 1009,5 hPa 0,0 mm 0,3 km/h (0 Bft) SW 225 0 min 1,6 C 0,0 km/h (0 Bft)
15.04.2016 05:55 5,0 C 4,9 C 78 % 1009,5 hPa 0,0 mm 0,3 km/h (0 Bft) O-NO 67 0 min 1,5 C 0,0 km/h (0 Bft)
15.04.2016 06:00 4,9 C 4,8 C 79 % 1009,5 hPa 0,0 mm 0,0 km/h (0 Bft) N-NO 22 0 min 1,6 C 0,0 km/h (0 Bft)
15.04.2016 06:05 4,7 C 4,7 C 78 % 1009,5 hPa 0,0 mm 0,0 km/h (0 Bft) S-SW 202 0 min 1,2 C 0,0 km/h (0 Bft)
15.04.2016 06:10 5,0 C 4,8 C 78 % 1009,4 hPa 0,0 mm 0,0 km/h (0 Bft) O-NO 67 0 min 1,5 C 0,0 km/h (0 Bft)
15.04.2016 06:15 5,2 C 5,0 C 78 % 1009,4 hPa 0,0 mm 0,0 km/h (0 Bft) NO 45 0 min 1,7 C 0,0 km/h (0 Bft)
15.04.2016 06:20 5,1 C 4,9 C 77 % 1009,4 hPa 0,0 mm 0,0 km/h (0 Bft) N-NO 22 0 min 1,4 C 0,0 km/h (0 Bft)
15.04.2016 06:25 5,0 C 4,9 C 77 % 1009,4 hPa 0,0 mm 0,0 km/h (0 Bft) W-NW 292 0 min 1,3 C 0,0 km/h (0 Bft)
15.04.2016 06:30 4,9 C 4,8 C 78 % 1009,1 hPa 0,0 mm 0,0 km/h (0 Bft) N-NO 22 0 min 1,4 C 3,0 km/h (1 Bft)
15.04.2016 06:35 4,9 C 4,8 C 78 % 1009,1 hPa 0,0 mm 0,3 km/h (0 Bft) N-NW 337 0 min 1,4 C 0,0 km/h (0 Bft)
15.04.2016 06:40 4,8 C 4,7 C 78 % 1009,1 hPa 0,0 mm 0,3 km/h (0 Bft) N-NW 337 0 min 1,3 C 0,0 km/h (0 Bft)
15.04.2016 06:43 5,1 C 5,0 C 78 % 1009,1 hPa 0,0 mm 0,0 km/h (0 Bft) N-NO 22 0 min 1,6 C 0,0 km/h (0 Bft)
15.04.2016 06:46 5,1 C 5,0 C 78 % 1009,1 hPa 0,0 mm 0,0 km/h (0 Bft) N-NO 22 0 min 1,6 C 0,0 km/h (0 Bft)
15.04.2016 06:50 5,2 C 5,1 C 78 % 1009,0 hPa 0,0 mm 0,3 km/h (0 Bft) NW 315 0 min 1,7 C 0,0 km/h (0 Bft)
15.04.2016 06:55 5,4 C 5,3 C 77 % 1009,0 hPa 0,0 mm 0,3 km/h (0 Bft) SO 135 0 min 1,7 C 0,0 km/h (0 Bft)
15.04.2016 07:00 5,3 C 5,3 C 77 % 1009,0 hPa 0,0 mm 0,3 km/h (0 Bft) N 360 0 min 1,6 C 3,3 km/h (1 Bft)
15.04.2016 07:05 5,8 C 5,7 C 75 % 1009,0 hPa 0,0 mm 0,6 km/h (0 Bft) N-NO 22 0 min 1,7 C 0,0 km/h (0 Bft)
15.04.2016 07:10 5,8 C 5,8 C 75 % 1008,9 hPa 0,0 mm 0,6 km/h (0 Bft) O-NO 67 0 min 1,7 C 0,0 km/h (0 Bft)
15.04.2016 07:15 5,8 C 5,8 C 75 % 1008,9 hPa 0,0 mm 0,0 km/h (0 Bft) NO 45 0 min 1,7 C 3,0 km/h (1 Bft)
15.04.2016 07:20 5,8 C 5,9 C 75 % 1008,9 hPa 0,0 mm 0,3 km/h (0 Bft) W-SW 247 0 min 1,7 C 0,0 km/h (0 Bft)
15.04.2016 07:25 6,0 C 6,1 C 73 % 1008,9 hPa 0,0 mm 0,0 km/h (0 Bft) O-NO 67 0 min 1,5 C 0,0 km/h (0 Bft)
15.04.2016 07:30 6,0 C 6,3 C 74 % 1008,8 hPa 0,0 mm 0,0 km/h (0 Bft) O 90 0 min 1,7 C 0,0 km/h (0 Bft)
15.04.2016 07:35 6,2 C 6,4 C 73 % 1008,8 hPa 0,0 mm 0,3 km/h (0 Bft) O 90 0 min 1,7 C 0,0 km/h (0 Bft)
15.04.2016 07:40 6,3 C 6,5 C 73 % 1008,8 hPa 0,0 mm 0,6 km/h (0 Bft) O-NO 67 0 min 1,8 C 3,9 km/h (1 Bft)
15.04.2016 07:45 6,4 C 6,6 C 72 % 1008,8 hPa 0,0 mm 0,3 km/h (0 Bft) SO 135 0 min 1,7 C 0,0 km/h (0 Bft)
15.04.2016 07:50 6,6 C 6,7 C 71 % 1008,9 hPa 0,0 mm 0,6 km/h (0 Bft) NO 45 0 min 1,7 C 0,0 km/h (0 Bft)
15.04.2016 07:55 6,8 C 6,9 C 70 % 1008,9 hPa 0,0 mm 0,6 km/h (0 Bft) O-SO 112 0 min 1,7 C 0,0 km/h (0 Bft)
15.04.2016 08:00 7,0 C 7,2 C 70 % 1008,9 hPa 0,0 mm 0,0 km/h (0 Bft) O 90 0 min 1,9 C 0,0 km/h (0 Bft)
15.04.2016 08:05 7,2 C 7,6 C 71 % 1008,9 hPa 0,0 mm 0,0 km/h (0 Bft) O-SO 112 0 min 2,3 C 0,0 km/h (0 Bft)
15.04.2016 08:10 7,3 C 7,8 C 71 % 1008,4 hPa 0,0 mm 0,0 km/h (0 Bft) SO 135 0 min 2,4 C 0,0 km/h (0 Bft)
15.04.2016 08:15 7,5 C 8,2 C 70 % 1008,4 hPa 0,0 mm 0,0 km/h (0 Bft) O-NO 67 0 min 2,4 C 0,0 km/h (0 Bft)
15.04.2016 08:20 7,7 C 8,4 C 68 % 1008,4 hPa 0,0 mm 0,9 km/h (0 Bft) N-NW 337 0 min 2,2 C 4,8 km/h (1 Bft)
15.04.2016 08:25 8,0 C 8,8 C 69 % 1008,4 hPa 0,0 mm 0,9 km/h (0 Bft) N-NO 22 0 min 2,7 C 0,0 km/h (0 Bft)
15.04.2016 08:30 8,1 C 9,1 C 69 % 1008,7 hPa 0,0 mm 0,6 km/h (0 Bft) O-NO 67 0 min 2,8 C 0,0 km/h (0 Bft)
15.04.2016 08:35 8,3 C 9,5 C 69 % 1008,7 hPa 0,0 mm 0,0 km/h (0 Bft) NO 45 0 min 3,0 C 0,0 km/h (0 Bft)
15.04.2016 08:40 8,6 C 9,6 C 69 % 1008,7 hPa 0,0 mm 0,0 km/h (0 Bft) N 360 0 min 3,2 C 0,0 km/h (0 Bft)
15.04.2016 08:45 8,7 C 9,8 C 69 % 1008,7 hPa 0,0 mm 0,0 km/h (0 Bft) N-NO 22 0 min 3,3 C 0,0 km/h (0 Bft)
15.04.2016 08:50 8,7 C 10,1 C 69 % 1008,6 hPa 0,0 mm 0,0 km/h (0 Bft) O-NO 67 0 min 3,3 C 0,0 km/h (0 Bft)
15.04.2016 08:55 8,9 C 10,2 C 69 % 1008,6 hPa 0,0 mm 0,0 km/h (0 Bft) W-NW 292 0 min 3,5 C 0,0 km/h (0 Bft)
15.04.2016 09:00 8,9 C 10,1 C 69 % 1008,6 hPa 0,0 mm 0,0 km/h (0 Bft) N-NW 337 0 min 3,5 C 0,0 km/h (0 Bft)
15.04.2016 09:05 8,7 C 9,7 C 69 % 1008,6 hPa 0,0 mm 0,3 km/h (0 Bft) W-NW 292 0 min 3,3 C 0,0 km/h (0 Bft)
15.04.2016 09:10 8,6 C 9,4 C 69 % 1008,9 hPa 0,0 mm 0,3 km/h (0 Bft) NW 315 0 min 3,2 C 0,0 km/h (0 Bft)
15.04.2016 09:15 8,3 C 8,9 C 68 % 1008,9 hPa 0,0 mm 0,0 km/h (0 Bft) W 270 0 min 2,7 C 0,0 km/h (0 Bft)
15.04.2016 09:20 8,1 C 8,6 C 69 % 1008,9 hPa 0,0 mm 0,3 km/h (0 Bft) W-NW 292 0 min 2,8 C 4,2 km/h (1 Bft)
15.04.2016 09:25 7,8 C 8,3 C 70 % 1008,9 hPa 0,0 mm 1,5 km/h (1 Bft) W-SW 247 0 min 2,7 C 0,0 km/h (0 Bft)
15.04.2016 09:30 7,8 C 8,1 C 70 % 1009,4 hPa 0,0 mm 1,5 km/h (1 Bft) W 270 0 min 2,7 C 0,0 km/h (0 Bft)
15.04.2016 09:35 8,2 C 8,3 C 70 % 1009,4 hPa 0,0 mm 0,3 km/h (0 Bft) W 270 0 min 3,1 C 3,3 km/h (1 Bft)
15.04.2016 09:40 8,5 C 8,6 C 70 % 1009,4 hPa 0,0 mm 0,6 km/h (0 Bft) W-SW 247 0 min 3,3 C 3,3 km/h (1 Bft)
15.04.2016 09:45 9,1 C 9,5 C 70 % 1009,4 hPa 0,0 mm 0,9 km/h (0 Bft) NO 45 0 min 3,9 C 0,0 km/h (0 Bft)
15.04.2016 09:47 9,1 C 9,5 C 70 % 1009,4 hPa 0,0 mm 0,9 km/h (0 Bft) NO 45 0 min 3,9 C 0,0 km/h (0 Bft)
15.04.2016 09:50 9,3 C 10,2 C 69 % 1009,2 hPa 0,0 mm 0,3 km/h (0 Bft) O 90 0 min 3,9 C 0,0 km/h (0 Bft)
15.04.2016 09:55 10,6 C 11,9 C 63 % 1009,2 hPa 0,0 mm 4,8 km/h (1 Bft) W-SW 247 0 min 3,9 C 12,2 km/h (2 Bft)
15.04.2016 10:00 10,9 C 12,6 C 63 % 1009,2 hPa 0,0 mm 6,9 km/h (2 Bft) NW 315 0 min 4,1 C 11,3 km/h (2 Bft)
15.04.2016 10:05 10,6 C 12,4 C 62 % 1009,2 hPa 0,0 mm 6,3 km/h (2 Bft) W-NW 292 0 min 3,6 C 5,4 km/h (1 Bft)
15.04.2016 10:10 10,6 C 12,2 C 63 % 1010,0 hPa 0,0 mm 5,4 km/h (1 Bft) N-NW 337 0 min 3,9 C 4,2 km/h (1 Bft)
15.04.2016 10:15 10,8 C 12,2 C 59 % 1010,0 hPa 0,0 mm 6,9 km/h (2 Bft) N-NO 22 0 min 3,1 C 20,6 km/h (4 Bft)
15.04.2016 10:20 11,1 C 12,3 C 58 % 1010,0 hPa 0,0 mm 9,2 km/h (2 Bft) W-NW 292 0 min 3,2 C 21,5 km/h (4 Bft)
15.04.2016 10:25 11,9 C 13,1 C 55 % 1010,0 hPa 0,0 mm 11,0 km/h (2 Bft) W-NW 292 0 min 3,2 C 20,0 km/h (4 Bft)
15.04.2016 10:30 12,0 C 13,8 C 54 % 1009,8 hPa 0,0 mm 11,0 km/h (2 Bft) W-SW 247 0 min 3,0 C 10,1 km/h (2 Bft)
15.04.2016 10:35 12,0 C 14,2 C 56 % 1009,8 hPa 0,0 mm 8,6 km/h (2 Bft) W 270 5 min 3,5 C 8,0 km/h (2 Bft)
15.04.2016 10:40 11,9 C 14,0 C 56 % 1009,8 hPa 0,0 mm 6,0 km/h (2 Bft) N-NO 22 0 min 3,4 C 5,1 km/h (1 Bft)
15.04.2016 10:45 11,6 C 13,6 C 56 % 1009,8 hPa 0,0 mm 4,5 km/h (1 Bft) NW 315 0 min 3,1 C 9,5 km/h (2 Bft)
15.04.2016 10:50 11,4 C 13,1 C 56 % 1010,6 hPa 0,0 mm 5,4 km/h (1 Bft) W 270 0 min 2,9 C 10,4 km/h (2 Bft)
15.04.2016 10:55 10,8 C 12,1 C 57 % 1010,6 hPa 0,0 mm 8,3 km/h (2 Bft) N-NW 337 0 min 2,6 C 7,5 km/h (2 Bft)
15.04.2016 11:00 10,7 C 11,5 C 58 % 1010,6 hPa 0,0 mm 9,8 km/h (2 Bft) W-NW 292 0 min 2,8 C 17,6 km/h (3 Bft)
15.04.2016 11:05 10,5 C 10,9 C 58 % 1010,6 hPa 0,0 mm 11,3 km/h (2 Bft) W 270 0 min 2,6 C 25,3 km/h (4 Bft)
15.04.2016 11:10 10,5 C 10,5 C 58 % 1010,7 hPa 0,0 mm 12,8 km/h (3 Bft) NW 315 0 min 2,6 C 23,5 km/h (4 Bft)
15.04.2016 11:15 10,2 C 10,1 C 60 % 1010,7 hPa 0,0 mm 13,7 km/h (3 Bft) W-NW 292 0 min 2,8 C 23,2 km/h (4 Bft)
15.04.2016 11:20 9,9 C 10,0 C 61 % 1010,7 hPa 0,0 mm 15,5 km/h (3 Bft) W 270 0 min 2,7 C 17,0 km/h (3 Bft)
15.04.2016 11:25 10,0 C 9,9 C 64 % 1010,7 hPa 0,0 mm 15,8 km/h (3 Bft) N-NW 337 0 min 3,5 C 29,8 km/h (5 Bft)
15.04.2016 11:30 10,2 C 10,1 C 64 % 1011,1 hPa 0,0 mm 14,9 km/h (3 Bft) W-NW 292 0 min 3,7 C 16,1 km/h (3 Bft)
15.04.2016 11:35 10,4 C 10,4 C 65 % 1011,1 hPa 0,0 mm 14,3 km/h (3 Bft) NW 315 0 min 4,1 C 35,2 km/h (5 Bft)
15.04.2016 11:40 10,2 C 10,6 C 65 % 1011,1 hPa 0,0 mm 15,5 km/h (3 Bft) W 270 0 min 3,9 C 23,8 km/h (4 Bft)
15.04.2016 11:45 10,0 C 10,2 C 65 % 1011,1 hPa 0,0 mm 12,5 km/h (3 Bft) NW 315 0 min 3,7 C 17,3 km/h (3 Bft)
15.04.2016 11:50 9,9 C 10,1 C 65 % 1010,9 hPa 0,0 mm 11,9 km/h (2 Bft) W-SW 247 0 min 3,6 C 11,3 km/h (2 Bft)
15.04.2016 11:55 9,9 C 9,8 C 66 % 1010,9 hPa 0,0 mm 11,9 km/h (2 Bft) W 270 0 min 3,9 C 18,8 km/h (3 Bft)
15.04.2016 12:00 10,0 C 10,2 C 66 % 1010,9 hPa 0,0 mm 10,1 km/h (2 Bft) S-SO 157 0 min 3,9 C 11,6 km/h (2 Bft)
15.04.2016 12:05 10,1 C 10,1 C 66 % 1010,9 hPa 0,0 mm 10,4 km/h (2 Bft) W-SW 247 0 min 4,0 C 9,2 km/h (2 Bft)
15.04.2016 12:10 10,5 C 10,7 C 66 % 1011,1 hPa 0,0 mm 11,9 km/h (2 Bft) W 270 0 min 4,4 C 22,4 km/h (4 Bft)
15.04.2016 12:15 10,6 C 10,8 C 65 % 1011,1 hPa 0,0 mm 12,8 km/h (3 Bft) NW 315 0 min 4,3 C 13,7 km/h (3 Bft)
15.04.2016 12:20 10,9 C 11,2 C 65 % 1011,1 hPa 0,0 mm 13,4 km/h (3 Bft) W-NW 292 0 min 4,6 C 20,0 km/h (4 Bft)
15.04.2016 12:25 10,7 C 11,6 C 64 % 1011,1 hPa 0,0 mm 12,5 km/h (3 Bft) S 180 0 min 4,2 C 9,2 km/h (2 Bft)
15.04.2016 12:30 10,7 C 11,4 C 64 % 1011,0 hPa 0,0 mm 13,1 km/h (3 Bft) SW 225 0 min 4,2 C 8,6 km/h (2 Bft)
15.04.2016 12:35 10,8 C 11,6 C 64 % 1011,0 hPa 0,0 mm 13,7 km/h (3 Bft) NW 315 0 min 4,3 C 33,4 km/h (5 Bft)
15.04.2016 12:40 11,0 C 11,6 C 64 % 1011,0 hPa 0,0 mm 16,1 km/h (3 Bft) W-NW 292 0 min 4,5 C 12,5 km/h (3 Bft)
15.04.2016 12:45 11,3 C 11,9 C 63 % 1011,0 hPa 0,0 mm 16,7 km/h (3 Bft) W 270 0 min 4,5 C 23,5 km/h (4 Bft)
15.04.2016 12:48 11,3 C 11,9 C 63 % 1011,0 hPa 0,0 mm 16,7 km/h (3 Bft) W 270 0 min 4,5 C 23,5 km/h (4 Bft)
15.04.2016 12:50 11,2 C 12,1 C 63 % 1011,2 hPa 0,0 mm 16,4 km/h (3 Bft) N-NO 22 0 min 4,4 C 14,3 km/h (3 Bft)
15.04.2016 12:55 12,6 C 12,6 C 64 % 1011,2 hPa 0,0 mm 15,8 km/h (3 Bft) W-NW 292 0 min 6,0 C 15,2 km/h (3 Bft)
15.04.2016 13:00 12,0 C 13,8 C 62 % 1011,2 hPa 0,0 mm 13,4 km/h (3 Bft) W-SW 247 0 min 4,9 C 14,6 km/h (3 Bft)
15.04.2016 13:05 11,3 C 12,8 C 63 % 1011,2 hPa 0,0 mm 13,4 km/h (3 Bft) NW 315 0 min 4,5 C 19,4 km/h (3 Bft)
15.04.2016 13:10 11,1 C 12,5 C 63 % 1011,3 hPa 0,0 mm 14,3 km/h (3 Bft) W-NW 292 0 min 4,3 C 18,2 km/h (3 Bft)
15.04.2016 13:15 10,7 C 11,6 C 66 % 1011,3 hPa 0,0 mm 14,9 km/h (3 Bft) W-NW 292 0 min 4,6 C 11,3 km/h (2 Bft)
15.04.2016 13:20 10,3 C 11,0 C 66 % 1011,3 hPa 0,0 mm 15,8 km/h (3 Bft) W-NW 292 0 min 4,2 C 14,3 km/h (3 Bft)
15.04.2016 13:25 10,2 C 10,5 C 66 % 1011,3 hPa 0,0 mm 16,7 km/h (3 Bft) W 270 0 min 4,1 C 26,5 km/h (4 Bft)
15.04.2016 13:30 10,1 C 10,1 C 67 % 1011,3 hPa 0,0 mm 16,1 km/h (3 Bft) W 270 0 min 4,3 C 17,3 km/h (3 Bft)
15.04.2016 13:35 9,8 C 9,8 C 68 % 1011,3 hPa 0,0 mm 15,2 km/h (3 Bft) W-NW 292 0 min 4,2 C 15,5 km/h (3 Bft)
15.04.2016 13:40 9,6 C 9,6 C 69 % 1011,3 hPa 0,0 mm 14,3 km/h (3 Bft) W-NW 292 0 min 4,2 C 8,9 km/h (2 Bft)
15.04.2016 13:45 9,5 C 9,3 C 69 % 1011,3 hPa 0,0 mm 12,8 km/h (3 Bft) NW 315 0 min 4,1 C 12,2 km/h (2 Bft)
15.04.2016 13:50 9,5 C 9,4 C 69 % 1011,1 hPa 0,0 mm 11,6 km/h (2 Bft) W-SW 247 0 min 4,1 C 15,8 km/h (3 Bft)
15.04.2016 13:55 9,8 C 9,7 C 69 % 1011,1 hPa 0,0 mm 9,5 km/h (2 Bft) W 270 0 min 4,4 C 8,9 km/h (2 Bft)
15.04.2016 14:00 9,7 C 9,8 C 69 % 1011,1 hPa 0,0 mm 8,6 km/h (2 Bft) S-SW 202 0 min 4,3 C 14,0 km/h (3 Bft)
15.04.2016 14:05 9,7 C 10,1 C 69 % 1011,1 hPa 0,0 mm 7,5 km/h (2 Bft) NW 315 0 min 4,3 C 13,1 km/h (3 Bft)
15.04.2016 14:10 9,9 C 10,3 C 69 % 1010,9 hPa 0,0 mm 6,9 km/h (2 Bft) W-NW 292 0 min 4,5 C 6,0 km/h (2 Bft)
15.04.2016 14:15 10,4 C 11,0 C 68 % 1010,9 hPa 0,0 mm 6,6 km/h (2 Bft) W-SW 247 0 min 4,8 C 6,6 km/h (2 Bft)
15.04.2016 14:20 10,4 C 11,1 C 68 % 1010,9 hPa 0,0 mm 6,6 km/h (2 Bft) W-SW 247 0 min 4,8 C 7,7 km/h (2 Bft)
15.04.2016 14:25 10,5 C 11,2 C 69 % 1010,9 hPa 0,0 mm 4,8 km/h (1 Bft) S 180 0 min 5,1 C 0,0 km/h (0 Bft)
15.04.2016 14:30 10,6 C 11,3 C 68 % 1011,0 hPa 0,0 mm 6,3 km/h (2 Bft) W 270 0 min 4,9 C 10,7 km/h (2 Bft)
15.04.2016 14:35 10,3 C 11,1 C 67 % 1011,0 hPa 0,0 mm 9,2 km/h (2 Bft) W 270 0 min 4,4 C 11,6 km/h (2 Bft)
15.04.2016 14:40 10,4 C 11,1 C 68 % 1011,0 hPa 0,0 mm 8,3 km/h (2 Bft) N 360 0 min 4,8 C 11,0 km/h (2 Bft)
15.04.2016 14:45 10,3 C 10,8 C 67 % 1011,0 hPa 0,0 mm 8,6 km/h (2 Bft) W-SW 247 0 min 4,4 C 18,2 km/h (3 Bft)
15.04.2016 14:50 10,3 C 10,8 C 67 % 1011,0 hPa 0,0 mm 9,8 km/h (2 Bft) W 270 0 min 4,4 C 13,4 km/h (3 Bft)
15.04.2016 14:55 10,9 C 11,4 C 67 % 1011,0 hPa 0,0 mm 8,9 km/h (2 Bft) NW 315 0 min 5,0 C 11,6 km/h (2 Bft)
15.04.2016 15:00 10,9 C 11,6 C 66 % 1011,0 hPa 0,0 mm 7,7 km/h (2 Bft) NW 315 0 min 4,8 C 3,9 km/h (1 Bft)
15.04.2016 15:05 11,0 C 11,9 C 66 % 1011,0 hPa 0,0 mm 6,9 km/h (2 Bft) W-SW 247 0 min 4,9 C 7,5 km/h (2 Bft)
15.04.2016 15:10 11,0 C 11,9 C 66 % 1011,1 hPa 0,0 mm 6,3 km/h (2 Bft) W 270 0 min 4,9 C 7,2 km/h (2 Bft)
15.04.2016 15:15 10,8 C 11,8 C 66 % 1011,1 hPa 0,0 mm 7,5 km/h (2 Bft) W-SW 247 0 min 4,7 C 12,8 km/h (3 Bft)
15.04.2016 15:20 11,1 C 11,8 C 66 % 1011,1 hPa 0,0 mm 6,6 km/h (2 Bft) W-SW 247 0 min 5,0 C 7,2 km/h (2 Bft)
15.04.2016 15:25 11,4 C 12,3 C 65 % 1011,1 hPa 0,0 mm 6,0 km/h (2 Bft) W-SW 247 0 min 5,1 C 6,6 km/h (2 Bft)
15.04.2016 15:30 11,3 C 12,3 C 65 % 1011,0 hPa 0,0 mm 6,0 km/h (2 Bft) W-NW 292 0 min 5,0 C 0,0 km/h (0 Bft)
15.04.2016 15:35 11,2 C 12,4 C 64 % 1011,0 hPa 0,0 mm 7,2 km/h (2 Bft) W 270 0 min 4,6 C 4,8 km/h (1 Bft)
15.04.2016 15:40 11,2 C 12,4 C 65 % 1011,0 hPa 0,0 mm 6,0 km/h (2 Bft) W-SW 247 0 min 4,9 C 5,7 km/h (1 Bft)
15.04.2016 15:45 11,2 C 12,1 C 65 % 1011,0 hPa 0,0 mm 2,1 km/h (1 Bft) W-SW 247 0 min 4,9 C 5,4 km/h (1 Bft)
15.04.2016 15:48 11,1 C 11,6 C 65 % 1010,6 hPa 0,0 mm 2,4 km/h (1 Bft) W-NW 292 0 min 4,8 C 6,0 km/h (2 Bft)
15.04.2016 15:49 11,1 C 11,6 C 65 % 1010,6 hPa 0,0 mm 2,4 km/h (1 Bft) W-NW 292 0 min 4,8 C 6,0 km/h (2 Bft)
15.04.2016 15:50 11,1 C 11,6 C 65 % 1010,6 hPa 0,0 mm 2,4 km/h (1 Bft) W-NW 292 0 min 4,8 C 6,0 km/h (2 Bft)
15.04.2016 15:55 11,0 C 11,2 C 66 % 1010,6 hPa 0,0 mm 4,2 km/h (1 Bft) W-SW 247 0 min 4,9 C 5,4 km/h (1 Bft)
15.04.2016 16:00 11,0 C 11,3 C 66 % 1010,6 hPa 0,0 mm 4,2 km/h (1 Bft) W 270 0 min 4,9 C 5,1 km/h (1 Bft)
15.04.2016 16:05 10,8 C 11,2 C 66 % 1010,6 hPa 0,0 mm 3,0 km/h (1 Bft) W-SW 247 0 min 4,7 C 0,0 km/h (0 Bft)
15.04.2016 16:10 10,7 C 11,0 C 66 % 1010,8 hPa 0,0 mm 2,7 km/h (1 Bft) W-SW 247 0 min 4,6 C 0,0 km/h (0 Bft)
15.04.2016 16:15 10,8 C 11,0 C 67 % 1010,8 hPa 0,0 mm 1,2 km/h (1 Bft) W 270 0 min 4,9 C 0,0 km/h (0 Bft)
15.04.2016 16:20 10,9 C 11,0 C 67 % 1010,8 hPa 0,0 mm 1,2 km/h (1 Bft) W 270 0 min 5,0 C 0,0 km/h (0 Bft)
15.04.2016 16:25 10,8 C 10,7 C 68 % 1010,8 hPa 0,0 mm 0,6 km/h (0 Bft) SW 225 0 min 5,1 C 0,0 km/h (0 Bft)
15.04.2016 16:30 10,9 C 10,7 C 68 % 1010,6 hPa 0,0 mm 0,0 km/h (0 Bft) NW 315 0 min 5,2 C 0,0 km/h (0 Bft)
15.04.2016 16:35 10,8 C 10,7 C 68 % 1010,6 hPa 0,0 mm 0,3 km/h (0 Bft) SW 225 0 min 5,1 C 6,0 km/h (2 Bft)
15.04.2016 16:41 10,9 C 10,8 C 68 % 1010,6 hPa 0,0 mm 0,9 km/h (0 Bft) NO 45 0 min 5,2 C 0,0 km/h (0 Bft)
15.04.2016 16:45 11,1 C 11,2 C 68 % 1010,6 hPa 0,0 mm 0,6 km/h (0 Bft) N 360 0 min 5,4 C 0,0 km/h (0 Bft)
15.04.2016 16:50 11,1 C 11,3 C 68 % 1010,4 hPa 0,0 mm 0,0 km/h (0 Bft) N-NO 22 0 min 5,4 C 0,0 km/h (0 Bft)
15.04.2016 16:55 11,0 C 11,5 C 68 % 1010,4 hPa 0,0 mm 0,0 km/h (0 Bft) O-SO 112 0 min 5,3 C 0,0 km/h (0 Bft)
15.04.2016 17:00 11,0 C 11,6 C 68 % 1010,4 hPa 0,0 mm 0,0 km/h (0 Bft) W-NW 292 0 min 5,3 C 0,0 km/h (0 Bft)
15.04.2016 17:05 10,8 C 11,5 C 68 % 1010,4 hPa 0,0 mm 1,2 km/h (1 Bft) NW 315 0 min 5,1 C 5,1 km/h (1 Bft)
15.04.2016 17:10 10,7 C 11,3 C 68 % 1010,4 hPa 0,0 mm 2,1 km/h (1 Bft) W 270 0 min 5,0 C 0,0 km/h (0 Bft)
15.04.2016 17:15 10,8 C 11,2 C 68 % 1010,4 hPa 0,0 mm 1,5 km/h (1 Bft) W-NW 292 0 min 5,1 C 3,3 km/h (1 Bft)
15.04.2016 17:20 10,9 C 11,2 C 68 % 1010,4 hPa 0,0 mm 0,6 km/h (0 Bft) W 270 0 min 5,2 C 0,0 km/h (0 Bft)
15.04.2016 17:25 11,0 C 11,4 C 68 % 1010,4 hPa 0,0 mm 0,6 km/h (0 Bft) N-NO 22 0 min 5,3 C 0,0 km/h (0 Bft)
15.04.2016 17:30 11,1 C 11,9 C 68 % 1010,1 hPa 0,0 mm 0,0 km/h (0 Bft) S-SO 157 0 min 5,4 C 0,0 km/h (0 Bft)
15.04.2016 17:35 11,7 C 12,6 C 68 % 1010,1 hPa 0,0 mm 0,6 km/h (0 Bft) SO 135 0 min 6,0 C 0,0 km/h (0 Bft)
15.04.2016 17:40 11,4 C 12,9 C 66 % 1010,1 hPa 0,0 mm 0,9 km/h (0 Bft) SO 135 0 min 5,3 C 5,4 km/h (1 Bft)
15.04.2016 17:45 11,5 C 13,0 C 66 % 1010,1 hPa 0,0 mm 1,2 km/h (1 Bft) N-NO 22 0 min 5,4 C 0,0 km/h (0 Bft)
15.04.2016 17:50 11,7 C 13,1 C 66 % 1009,8 hPa 0,0 mm 0,9 km/h (0 Bft) O 90 0 min 5,6 C 0,0 km/h (0 Bft)
15.04.2016 17:55 11,9 C 13,5 C 66 % 1009,8 hPa 0,0 mm 0,6 km/h (0 Bft) O-SO 112 0 min 5,8 C 0,0 km/h (0 Bft)
15.04.2016 18:00 12,0 C 13,6 C 65 % 1009,8 hPa 0,0 mm 0,9 km/h (0 Bft) W-SW 247 0 min 5,6 C 3,9 km/h (1 Bft)
15.04.2016 18:05 11,4 C 13,6 C 64 % 1009,8 hPa 0,0 mm 1,5 km/h (1 Bft) W-SW 247 5 min 4,8 C 0,0 km/h (0 Bft)
15.04.2016 18:10 11,6 C 13,3 C 64 % 1009,7 hPa 0,0 mm 3,0 km/h (1 Bft) SW 225 0 min 5,0 C 5,7 km/h (1 Bft)
15.04.2016 18:15 11,4 C 13,1 C 64 % 1009,7 hPa 0,0 mm 2,1 km/h (1 Bft) O-NO 67 0 min 4,8 C 0,0 km/h (0 Bft)
15.04.2016 18:20 11,4 C 12,8 C 65 % 1009,7 hPa 0,0 mm 1,2 km/h (1 Bft) S-SW 202 0 min 5,1 C 0,0 km/h (0 Bft)
15.04.2016 18:25 11,3 C 12,4 C 66 % 1009,7 hPa 0,0 mm 1,2 km/h (1 Bft) NW 315 0 min 5,2 C 0,0 km/h (0 Bft)
15.04.2016 18:30 11,3 C 12,1 C 66 % 1009,6 hPa 0,0 mm 1,8 km/h (1 Bft) S 180 0 min 5,2 C 4,8 km/h (1 Bft)
15.04.2016 18:35 11,1 C 11,9 C 66 % 1009,6 hPa 0,0 mm 1,8 km/h (1 Bft) S 180 0 min 5,0 C 0,0 km/h (0 Bft)
15.04.2016 18:40 11,0 C 11,7 C 66 % 1009,6 hPa 0,0 mm 1,2 km/h (1 Bft) S 180 0 min 4,9 C 0,0 km/h (0 Bft)
15.04.2016 18:45 11,2 C 11,7 C 66 % 1009,6 hPa 0,0 mm 0,0 km/h (0 Bft) S 180 0 min 5,1 C 0,0 km/h (0 Bft)
15.04.2016 18:48 11,2 C 11,8 C 66 % 1009,8 hPa 0,0 mm 0,0 km/h (0 Bft) W-SW 247 0 min 5,1 C 0,0 km/h (0 Bft)
15.04.2016 18:49 11,2 C 11,8 C 66 % 1009,8 hPa 0,0 mm 0,0 km/h (0 Bft) W-SW 247 0 min 5,1 C 0,0 km/h (0 Bft)
15.04.2016 18:55 10,9 C 11,6 C 68 % 1009,8 hPa 0,0 mm 0,6 km/h (0 Bft) O 90 0 min 5,2 C 0,0 km/h (0 Bft)
15.04.2016 19:00 10,6 C 11,3 C 68 % 1009,8 hPa 0,0 mm 0,6 km/h (0 Bft) O-NO 67 0 min 4,9 C 0,0 km/h (0 Bft)
15.04.2016 19:05 10,6 C 10,9 C 68 % 1009,8 hPa 0,0 mm 0,3 km/h (0 Bft) N-NW 337 0 min 4,9 C 0,0 km/h (0 Bft)
15.04.2016 19:10 10,5 C 10,7 C 68 % 1009,6 hPa 0,0 mm 0,0 km/h (0 Bft) N-NO 22 0 min 4,8 C 0,0 km/h (0 Bft)
15.04.2016 19:15 10,2 C 10,4 C 69 % 1009,6 hPa 0,0 mm 0,0 km/h (0 Bft) SO 135 0 min 4,8 C 0,0 km/h (0 Bft)
15.04.2016 19:20 10,1 C 10,2 C 70 % 1009,6 hPa 0,0 mm 0,0 km/h (0 Bft) SO 135 0 min 4,9 C 0,0 km/h (0 Bft)
15.04.2016 19:25 9,9 C 9,9 C 71 % 1009,6 hPa 0,0 mm 0,3 km/h (0 Bft) S-SO 157 0 min 4,9 C 0,0 km/h (0 Bft)
15.04.2016 19:30 9,8 C 9,8 C 71 % 1009,5 hPa 0,0 mm 0,3 km/h (0 Bft) S-SO 157 0 min 4,8 C 0,0 km/h (0 Bft)
15.04.2016 19:35 9,5 C 9,5 C 72 % 1009,5 hPa 0,0 mm 0,3 km/h (0 Bft) SO 135 0 min 4,7 C 3,3 km/h (1 Bft)
15.04.2016 19:40 9,4 C 9,4 C 73 % 1009,5 hPa 0,0 mm 0,6 km/h (0 Bft) S-SO 157 0 min 4,8 C 0,0 km/h (0 Bft)
15.04.2016 19:45 9,2 C 9,2 C 75 % 1009,5 hPa 0,0 mm 0,3 km/h (0 Bft) O-SO 112 0 min 5,0 C 0,0 km/h (0 Bft)
15.04.2016 19:50 9,1 C 9,0 C 76 % 1009,1 hPa 0,0 mm 0,0 km/h (0 Bft) SO 135 0 min 5,1 C 0,0 km/h (0 Bft)
15.04.2016 19:55 8,9 C 8,8 C 77 % 1009,1 hPa 0,0 mm 0,0 km/h (0 Bft) SW 225 0 min 5,1 C 0,0 km/h (0 Bft)
15.04.2016 20:00 8,8 C 8,7 C 77 % 1009,1 hPa 0,0 mm 0,0 km/h (0 Bft) N-NW 337 0 min 5,0 C 0,0 km/h (0 Bft)
15.04.2016 20:05 8,7 C 8,6 C 76 % 1009,1 hPa 0,0 mm 0,3 km/h (0 Bft) SW 225 0 min 4,7 C 8,3 km/h (2 Bft)
15.04.2016 20:10 8,8 C 8,6 C 76 % 1009,2 hPa 0,0 mm 0,9 km/h (0 Bft) NW 315 0 min 4,8 C 0,0 km/h (0 Bft)
15.04.2016 20:15 8,7 C 8,5 C 79 % 1009,2 hPa 0,0 mm 1,2 km/h (1 Bft) O 90 0 min 5,3 C 3,9 km/h (1 Bft)
15.04.2016 20:20 8,6 C 8,5 C 79 % 1009,2 hPa 0,0 mm 1,2 km/h (1 Bft) N-NW 337 0 min 5,2 C 0,0 km/h (0 Bft)
15.04.2016 20:25 8,6 C 8,4 C 79 % 1009,2 hPa 0,0 mm 0,9 km/h (0 Bft) O-SO 112 0 min 5,2 C 0,0 km/h (0 Bft)
15.04.2016 20:30 8,7 C 8,4 C 79 % 1008,9 hPa 0,0 mm 0,0 km/h (0 Bft) SO 135 0 min 5,3 C 0,0 km/h (0 Bft)
15.04.2016 20:35 8,6 C 8,4 C 79 % 1008,9 hPa 0,0 mm 0,0 km/h (0 Bft) S 180 0 min 5,2 C 0,0 km/h (0 Bft)
15.04.2016 20:40 8,5 C 8,3 C 79 % 1008,9 hPa 0,0 mm 0,0 km/h (0 Bft) W 270 0 min 5,1 C 0,0 km/h (0 Bft)
15.04.2016 20:45 8,4 C 8,2 C 79 % 1008,9 hPa 0,0 mm 0,0 km/h (0 Bft) NO 45 0 min 5,0 C 0,0 km/h (0 Bft)
15.04.2016 20:50 8,4 C 8,2 C 79 % 1009,0 hPa 0,0 mm 0,0 km/h (0 Bft) O 90 0 min 5,0 C 0,0 km/h (0 Bft)
15.04.2016 20:55 8,4 C 8,2 C 80 % 1009,0 hPa 0,0 mm 0,0 km/h (0 Bft) NO 45 0 min 5,2 C 0,0 km/h (0 Bft)
15.04.2016 21:00 8,3 C 8,1 C 80 % 1009,0 hPa 0,0 mm 0,0 km/h (0 Bft) S-SO 157 0 min 5,1 C 0,0 km/h (0 Bft)
15.04.2016 21:05 8,3 C 8,0 C 80 % 1009,0 hPa 0,0 mm 0,0 km/h (0 Bft) NW 315 0 min 5,1 C 0,0 km/h (0 Bft)
15.04.2016 21:10 8,3 C 8,0 C 80 % 1009,4 hPa 0,0 mm 0,6 km/h (0 Bft) W-SW 247 0 min 5,1 C 0,0 km/h (0 Bft)
15.04.2016 21:15 8,4 C 8,1 C 80 % 1009,4 hPa 0,0 mm 0,9 km/h (0 Bft) SW 225 0 min 5,2 C 0,0 km/h (0 Bft)
15.04.2016 21:20 8,4 C 8,1 C 80 % 1009,4 hPa 0,0 mm 0,3 km/h (0 Bft) O-SO 112 0 min 5,2 C 0,0 km/h (0 Bft)
15.04.2016 21:25 8,2 C 8,0 C 83 % 1009,4 hPa 0,0 mm 0,9 km/h (0 Bft) O-SO 112 0 min 5,5 C 0,0 km/h (0 Bft)
15.04.2016 21:30 8,2 C 7,9 C 83 % 1008,9 hPa 0,0 mm 0,9 km/h (0 Bft) W-NW 292 0 min 5,5 C 0,0 km/h (0 Bft)
15.04.2016 21:35 8,1 C 7,8 C 82 % 1008,9 hPa 0,0 mm 0,0 km/h (0 Bft) W-SW 247 0 min 5,2 C 0,0 km/h (0 Bft)
15.04.2016 21:40 8,0 C 7,7 C 82 % 1008,9 hPa 0,0 mm 0,0 km/h (0 Bft) N-NW 337 0 min 5,1 C 0,0 km/h (0 Bft)
15.04.2016 21:45 8,0 C 7,7 C 83 % 1008,9 hPa 0,0 mm 0,0 km/h (0 Bft) O-NO 67 0 min 5,3 C 0,0 km/h (0 Bft)
15.04.2016 21:48 7,9 C 7,7 C 83 % 1009,1 hPa 0,0 mm 0,0 km/h (0 Bft) O-NO 67 0 min 5,2 C 0,0 km/h (0 Bft)
15.04.2016 21:50 7,9 C 7,7 C 83 % 1009,1 hPa 0,0 mm 0,0 km/h (0 Bft) O-NO 67 0 min 5,2 C 0,0 km/h (0 Bft)
15.04.2016 21:55 7,9 C 7,7 C 84 % 1009,1 hPa 0,0 mm 0,0 km/h (0 Bft) O-NO 67 0 min 5,4 C 0,0 km/h (0 Bft)
15.04.2016 22:00 7,9 C 7,7 C 84 % 1009,1 hPa 0,0 mm 0,0 km/h (0 Bft) O-NO 67 0 min 5,4 C 0,0 km/h (0 Bft)
15.04.2016 22:05 7,8 C 7,6 C 84 % 1009,1 hPa 0,0 mm 1,2 km/h (1 Bft) NW 315 0 min 5,3 C 6,3 km/h (2 Bft)
15.04.2016 22:10 7,8 C 7,6 C 84 % 1009,1 hPa 0,0 mm 1,5 km/h (1 Bft) O-SO 112 0 min 5,3 C 0,0 km/h (0 Bft)
15.04.2016 22:15 7,9 C 7,7 C 85 % 1009,1 hPa 0,0 mm 0,6 km/h (0 Bft) S-SO 157 0 min 5,5 C 0,0 km/h (0 Bft)
15.04.2016 22:20 7,9 C 7,6 C 85 % 1009,1 hPa 0,0 mm 0,0 km/h (0 Bft) O-NO 67 0 min 5,5 C 0,0 km/h (0 Bft)
15.04.2016 22:25 7,7 C 7,5 C 85 % 1009,1 hPa 0,0 mm 0,0 km/h (0 Bft) N-NO 22 0 min 5,3 C 0,0 km/h (0 Bft)
15.04.2016 22:30 7,6 C 7,4 C 85 % 1008,9 hPa 0,0 mm 0,3 km/h (0 Bft) W 270 0 min 5,2 C 0,0 km/h (0 Bft)
15.04.2016 22:35 7,7 C 7,4 C 80 % 1008,9 hPa 0,0 mm 0,9 km/h (0 Bft) O-SO 112 0 min 4,5 C 0,0 km/h (0 Bft)
15.04.2016 22:40 7,7 C 7,4 C 85 % 1008,9 hPa 0,0 mm 0,3 km/h (0 Bft) O-NO 67 0 min 5,3 C 0,0 km/h (0 Bft)
15.04.2016 22:45 7,7 C 7,3 C 81 % 1008,9 hPa 0,0 mm 0,0 km/h (0 Bft) NO 45 0 min 4,7 C 0,0 km/h (0 Bft)
15.04.2016 22:50 7,6 C 7,3 C 81 % 1009,1 hPa 0,0 mm 0,0 km/h (0 Bft) W 270 0 min 4,6 C 0,0 km/h (0 Bft)
15.04.2016 22:55 7,5 C 7,2 C 81 % 1009,1 hPa 0,0 mm 0,0 km/h (0 Bft) O-SO 112 0 min 4,5 C 0,0 km/h (0 Bft)
15.04.2016 23:00 7,5 C 7,0 C 81 % 1009,1 hPa 0,0 mm 0,0 km/h (0 Bft) O-NO 67 0 min 4,5 C 0,0 km/h (0 Bft)
15.04.2016 23:05 7,4 C 7,1 C 81 % 1009,1 hPa 0,0 mm 0,0 km/h (0 Bft) O-SO 112 0 min 4,4 C 0,0 km/h (0 Bft)
15.04.2016 23:10 7,4 C 7,0 C 81 % 1009,0 hPa 0,0 mm 0,0 km/h (0 Bft) O-SO 112 0 min 4,4 C 0,0 km/h (0 Bft)
15.04.2016 23:15 7,5 C 7,2 C 86 % 1009,0 hPa 0,0 mm 0,0 km/h (0 Bft) O-SO 112 0 min 5,3 C 0,0 km/h (0 Bft)
15.04.2016 23:20 7,5 C 7,1 C 82 % 1009,0 hPa 0,0 mm 0,3 km/h (0 Bft) NW 315 0 min 4,6 C 5,1 km/h (1 Bft)
15.04.2016 23:25 7,5 C 7,1 C 82 % 1009,0 hPa 0,0 mm 1,8 km/h (1 Bft) SO 135 0 min 4,6 C 0,0 km/h (0 Bft)
15.04.2016 23:30 7,5 C 7,1 C 82 % 1008,9 hPa 0,0 mm 1,8 km/h (1 Bft) O-SO 112 0 min 4,6 C 0,0 km/h (0 Bft)
15.04.2016 23:35 7,5 C 7,0 C 82 % 1008,9 hPa 0,0 mm 0,0 km/h (0 Bft) W-NW 292 0 min 4,6 C 0,0 km/h (0 Bft)
15.04.2016 23:40 7,5 C 7,0 C 82 % 1008,9 hPa 0,0 mm 0,0 km/h (0 Bft) O 90 0 min 4,6 C 0,0 km/h (0 Bft)
15.04.2016 23:45 7,5 C 7,0 C 82 % 1008,9 hPa 0,0 mm 0,0 km/h (0 Bft) SO 135 0 min 4,6 C 0,0 km/h (0 Bft)
15.04.2016 23:50 7,5 C 6,9 C 82 % 1008,9 hPa 0,0 mm 0,6 km/h (0 Bft) W 270 0 min 4,6 C 10,4 km/h (2 Bft)
15.04.2016 23:55 7,5 C 7,0 C 82 % 1008,9 hPa 0,0 mm 2,7 km/h (1 Bft) O-SO 112 0 min 4,6 C 0,0 km/h (0 Bft)
_ Min-Zeit 00:10 02:20 10:30 08:25 - 23:45 - - - 06:05 23:55
Minimum _ 3,1 C 2,0 C 54 % 1008,4 hPa - 0,0 km/h (0 Bft) - - - 1,2 C 0,0 km/h (0 Bft)
_ Max-Zeit 12:55 10:35 03:35 00:05 23:55 13:25 - - 18:05 17:35 11:35
Maximum _ 12,6 C 14,2 C 89 % 1012,3 hPa 0,0 mm 16,7 km/h
W (3 Bft)
- - 5 min 6,0 C 35,2 km/h
NW (5 Bft)
Durchschnitt _ 8,0 C 8,1 C 74 % 1010,1 hPa #0,0 mm 3,0 km/h (1 Bft) W - #10 min. 3,5 C 4,0 km/h (1 Bft)